Location: Oklahoma City
(35.4680°N, 97.5160°W)
Time: 01:34:41
(UTC-05:00)

ISS - Visible Passes

Search period start: 28 July 2017 00:00
Search period end: 07 August 2017 00:00
Orbit: 400 x 408 km, 51.6° (Epoch: 28 July)

Date Brightness Start Highest point End Pass type
(mag) Time Alt. Az. Time Alt. Az. Time Alt. Az.
28 Jul -0.7 21:22:28 10° WNW 21:24:23 15° NNW 21:26:18 10° N visible
04 Aug -0.7 23:21:37 10° NNW 23:22:18 13° N 23:22:18 13° N visible
05 Aug -1.1 22:29:58 10° N 22:31:24 12° NNE 22:31:41 12° NNE visible
06 Aug -0.9 23:12:45 10° NW 23:13:44 17° NNW 23:13:44 17° NNW visible
